sat.trackr.live / text

‹ back to catalog

BEIDOU-3 M21 (C43)

NORAD 44794 · 2019-078B

PAYLOAD ACTIVE UNKNOWN

§ Identity

Operator
Country
PRC
Launch date
2019-11-23
Launch site
XICLF
Launch vehicle
Mass (kg)
RCS (m²)

Purposes: earth_obs, nav

External: N2YO · Heavens-Above · Gunter

§ Orbital elements

Epoch: 2026-09-18T02:47:33.217152Z

Period
773.25 min
Inclination
53.8218°
Eccentricity
0.0002880
Mean motion
1.86228016 rev/d
Perigee alt
21,520.3 km
Apogee alt
21,536.4 km
Semi-major
27,906.5 km
B*
0.0000e+0
RAAN
296.5089°
Arg perigee
29.9713°
Mean anomaly
330.1007°
Rev number
4,638

§ Raw data

BEIDOU-3 M21 (C43)1 44794U 19078B   26261.11635668 -.00000036  00000+0  00000+0 0  99942 44794  53.8218 296.5089 0002880  29.9713 330.1007  1.86228016 46384

JSON: /api/v1/satellites/44794 · /tle

For live sub-satellite position, see the globe view (requires WebGL).

§ Visibility from observer

Set your observer location to see the next 7 days of passes ≥ 10°. The values pass through the URL so the page stays shareable.

No JS? Fill the form by hand. The geolocation button needs JavaScript.